Location: Blairvadach
(56.2780°N, 6.9720°W)
Time: 13:52:47
(UTC+01:00)

OTV 5 (USA 277) - Pass Details

Date: 21 April 2019
Orbit: 310 x 325 km, 54.5° (Epoch: 08 May)

Event Time Altitude Azimuth Distance (km) Brightness Sun altitude
Exits shadow 05:03:24 13° 236° (SW) 1,042 ? -8.6°
Maximum altitude 05:04:14 15° 214° (SW) 976 ? -8.5°
Drops below altitude 10° 05:05:52 10° 176° (S) 1,209 ? -8.3°
Sets 05:08:20 0° 151° (SSE) 2,037 ? -8.0°
